Dauntless Aviation
Greetings, Guest! To participate, [sign up for a free account] or [log in]
Airports Europe Czech Republic
LKPO
PRV

Prerov

Prerov, CZECH REPUBLIC

Airport Info
Edit

Location

Latitude / Longitude: 49°25'32"N / 17°24'16"E
  49°25.548'N / 17°24.282'E
  49.4258 / 17.4047

Nearby radio navigation aids

CK PREROV NDB. 63.6° 2.8nm from CK to field.

Runway Information

Runway 06 /24

Dimensions: 8202 x 196 ft.
Surface: ASP
 
Runway 06
Runway 24
Latitude: 49.421419 49.430439
Longitude: 17.389275 17.420478
Elevation: 663 ft. 663 ft.
Runway true heading: 64.6 244.6
 

Instrument Procedures

  Aerodrome Chart

IAPs (Instrument Approach Procedures)

  ILS/DME Rwy 06
  NDB/DME (GPS) or PAR Rwy 06
  NDB (GPS) or PAR Rwy 06
  POLOM 3A

Departure Procedures

  Instrument Departure Chart HLV 1A - 2Z
  Instrument Departure Chart LUTIM 2A - 2Z
  Instrument Departure Chart MORKO 2Z
  Instrument Departure Chart POLOM 3A
Satellite photo at:
Airport distance calculator
From:
Weather Reports

METAR

LKKU
23.6nm SE
LKKU 301200Z 18003KT 090V230 CAVOK 11/04 Q1025 RMK REG QNH 1021
LKMT
31.3nm NE
LKMT 301200Z 21008KT CAVOK 10/04 Q1025 NOSIG
LKTB
33.3nm SW
LKTB 301200Z 22005KT 190V260 9000 BKN034 09/05 Q1025 NOSIG

TAF

LKMT
31.3nm NE
TAF LKMT 301100Z 3012/3118 23008KT 9000 NSC BECMG 3020/3022 VRB02KT 3000 BR BKN007 PROB30 TEMPO 3102/3108 0700 FG BKN002 BECMG 3111/3113 6000 BKN012 TEMPO 3113/3116 SCT018
LKTB
33.3nm SW
TAF LKTB 301100Z 3012/3118 VRB02KT 8000 FEW016 TEMPO 3012/3021 BKN010 BECMG 3021/3024 3000 BR BKN008 PROB30 TEMPO 3103/3108 0700 FG BKN003 BECMG 3111/3113 6000 BKN012 TEMPO 3113/3116 SCT018
Safelog

 

Dauntless Aviation

© 2007-2014 Dauntless Aviation, all rights reserved
Information provided via PilotNav comes from a variety of official and unofficial data sources. As errors are possible, do not use PilotNav for primary flight planning purposes. Verify any information that you receive via PilotNav with current and canonical charts and other official documents. The material in this database is subject to database copyrights held by Dauntless Aviation and may not be copied without the express permission of Dauntless Aviation - licenses for use of part of all of this data are available for purchase; enquire via the Dauntless Aviation helpdesk. A number of mechanisms and markers exist in the database to protect against and identify infringement / copyright. Automated queries against this website are stictly prohibited, and all activity is logged and analyzed.